Regional Weather Roundup
Issued by NWS Little Rock, AR

Home | Current Version | Previous Version | Text Only | Print | Product List | Glossary Off
Versions: 1 2 3 4 5 6 7 8 9 10 11 12 13 14 15 16 17 18 19 20 21 22 23 24 25 26 27 28 29 30 31 32 33 34 35 36 37 38 39 40 41 42 43 44 45 46 47 48 49 50

000
ASUS44 KLZK 272005
RWRLZK

WEATHER ROUNDUP FOR ARKANSAS
NATIONAL WEATHER SERVICE LITTLE ROCK AR
200 PM CST TUE JAN 27 2015

NOTE: "FAIR" INDICATES FEW OR NO CLOUDS BELOW 12,000 FEET WITH NO
SIGNIFICANT WEATHER AND/OR OBSTRUCTIONS TO VISIBILITY.

ARZ001-003-010-029-272100-
NORTHWEST ARKANSAS

CITY           SKY/WX    TMP DP  RH WIND       PRES   REMARKS
FAYETTEVILLE   SUNNY     63  24  22 CALM      30.12F
FORT SMITH     SUNNY     69  27  20 W6        30.12F
HARRISON       SUNNY     62  27  26 MISG      30.12F
BENTONVILLE    SUNNY     63  27  25 SE3       30.13F
ROGERS         SUNNY     63  26  24 S5        30.12F
SILOAM SPGS    SUNNY    N/A N/A N/A S3        30.13S
HIGHFILL       SUNNY     63  25  23 CALM      30.11F
SPRINGDALE     SUNNY     63  28  27 CALM      30.14F
$$

ARZ004-005-016-272100-
NORTH CENTRAL ARKANSAS

CITY           SKY/WX    TMP DP  RH WIND       PRES   REMARKS
BATESVILLE     SUNNY     61  34  36 NE5       30.12F
FLIPPIN        SUNNY     61  32  33 NE8       30.12F
MTN HOME       SUNNY     57  32  38 W6        30.12F
$$

ARZ040-041-272100-
WEST CENTRAL ARKANSAS

CITY           SKY/WX    TMP DP  RH WIND       PRES   REMARKS
MENA           SUNNY     73  23  15 CALM      30.11F
MOUNT IDA      SUNNY     72  31  22 VRB3      30.09F
$$

ARZ009-017-025-026-028-272100-
NORTHEAST ARKANSAS

CITY           SKY/WX    TMP DP  RH WIND       PRES   REMARKS
CORNING        FAIR      52  36  54 N3        30.14S
JONESBORO      SUNNY     53  36  52 CALM      30.12F
NEWPORT        SUNNY     55  38  52 NE7       30.14F
WALNUT RIDGE   SUNNY     54  36  50 E5        30.13F
BLYTHEVILLE    SUNNY     51  36  56 NE13      30.14S
$$

ARZ022-023-033-042-044-272100-
CENTRAL ARKANSAS

CITY           SKY/WX    TMP DP  RH WIND       PRES   REMARKS
LITTLE ROCK    SUNNY     66  29  24 E3        30.12F
N LITTLE ROCK  SUNNY     64  36  35 E3        30.12F
JACKSONVILLE   SUNNY     65  31  28 N3        30.11F
SEARCY         SUNNY     61  33  35 N7        30.13F
HOT SPRINGS    SUNNY     70  30  22 SE7       30.11F
RUSSELLVILLE   SUNNY     65  32  29 VRB3      30.11F
CLINTON        FAIR      64  27  24 N3        30.12F
$$

ARZ036-272100-
EAST ARKANSAS

CITY           SKY/WX    TMP DP  RH WIND       PRES   REMARKS
WEST MEMPHIS   SUNNY     54  38  54 N10       30.12S
$$

ARZ050-053-066-070-073-272100-
SOUTHWEST ARKANSAS

CITY           SKY/WX    TMP DP  RH WIND       PRES   REMARKS
ARKADELPHIA    FAIR      70  38  31 VRB3      30.12F
CAMDEN         SUNNY     72  32  23 MISG      30.12F
TEXARKANA      SUNNY     72  28  19 VRB3      30.11F
EL DORADO      SUNNY     69  31  24 NW5       30.12F
DE QUEEN       SUNNY     74  33  22 CALM      30.09F
$$

ARZ056-057-069-272100-
SOUTHEAST ARKANSAS

CITY           SKY/WX    TMP DP  RH WIND       PRES   REMARKS
PINE BLUFF     SUNNY     60  35  39 N7        30.13F
STUTTGART      SUNNY     59  36  41 N6        30.13F
MONTICELLO     SUNNY     65  36  34 VRB6      30.11F

$$




USA.gov is the U.S. government's official web portal to all federal, state and local government web resources and services.